Weather History for Marathon, FL

Change the Weather History Date:

Wednesday, November 2, 2011

  Actual Average Record
Temperature  
Mean Temperature 79 °F 78 °F  
Max Temperature 83 °F 82 °F 87 °F (1996)
Min Temperature 74 °F 73 °F 66 °F (2012)
Degree Days  
Heating Degree Days 0 0  
Month to date heating degree days 0 0  
Since 1 July heating degree days 0 0  
Cooling Degree Days 14 13  
Month to date cooling degree days 28 26  
Year to date cooling degree days 4807 4465  
Growing Degree Days 28 (Base 50)    
Moisture  
Dew Point 70 °F    
Average Humidity 79    
Maximum Humidity 93    
Minimum Humidity 64    
Precipitation  
Precipitation 0.00 in 0.16 in 0.30 in (2006)
Month to date precipitation 0.00 0.32  
Year to date precipitation 35.51 41.65  
Snow  
Snow 0.00 in - - ()
Month to date snowfall 0.0  
Since 1 July snowfall 0.0  
Since 1 September snowfall 0.0  
Snow Depth 0.00 in    
Sea Level Pressure  
Sea Level Pressure 30.04 in    
Wind  
Wind Speed 17 mph (NE)    
Max Wind Speed 23 mph    
Max Gust Speed 30 mph    
Visibility 10 miles    
Events      
T = Trace of Precipitation, MM = Missing Value Source: NWS Daily Summary

Daily Weather History Graph

Daily Weather History Graph

Search for Another Location

Airport:

Trip Planner

Search our weather history database for the weather conditions in past years. The results will help you decide how hot, cold, wet, or windy it might be!

Date:

Astronomy

Nov. 02, 2011 Rise Set
Actual Time 7:31 AM EDT 6:43 PM EDT
Civil Twilight 7:08 AM EDT 7:06 PM EDT
Nautical Twilight 6:41 AM EDT 7:34 PM EDT
Astronomical Twilight 6:14 AM EDT 8:00 PM EDT
Moon 1:51 PM EDT (11/2) 12:29 AM EDT (11/2)
Length of Visible Light 11h 58m
Length of Day
11h 11m
Waxing Crescent, 50% of the Moon is Illuminated
Nov 2
Waxing Crescent
Nov 2
First Quarter
Nov 10
Full
Nov 18
Last Quarter
Nov 25
New

Hourly Weather History & Observations

Time (EDT) Temp. Heat Index Dew Point Humidity Pressure Visibility Wind Dir Wind Speed Gust Speed Precip Events Conditions
12:12 AM 75.2 °F - 69.8 °F 83% 30.05 in 10.0 mi NNE 18.4 mph 26.5 mph N/A   Overcast
12:37 AM 75.2 °F - 69.8 °F 83% 30.05 in 10.0 mi NE 13.8 mph 26.5 mph N/A   Mostly Cloudy
12:53 AM 75.9 °F - 70.0 °F 82% 30.04 in 10.0 mi NE 17.3 mph 23.0 mph N/A   Scattered Clouds
1:22 AM 75.2 °F - 69.8 °F 83% 30.04 in 10.0 mi NNE 16.1 mph 23.0 mph N/A   Mostly Cloudy
1:44 AM 75.2 °F - 69.8 °F 83% 30.03 in 10.0 mi NNE 17.3 mph 23.0 mph N/A   Scattered Clouds
1:53 AM 75.0 °F - 70.0 °F 84% 30.04 in 10.0 mi NE 16.1 mph - N/A   Scattered Clouds
2:27 AM 75.2 °F - 69.8 °F 83% 30.03 in 10.0 mi NNE 13.8 mph 23.0 mph N/A   Mostly Cloudy
2:53 AM 75.0 °F - 71.1 °F 87% 30.03 in 10.0 mi NNE 11.5 mph 20.7 mph N/A   Mostly Cloudy
3:35 AM 75.2 °F - 71.6 °F 89% 30.02 in 10.0 mi NE 11.5 mph 20.7 mph N/A   Scattered Clouds
3:53 AM 75.0 °F - 71.1 °F 87% 30.02 in 10.0 mi NNE 16.1 mph 24.2 mph N/A   Mostly Cloudy
4:00 AM 75.2 °F - 71.6 °F 89% 30.01 in 10.0 mi NNE 15.0 mph 24.2 mph N/A   Mostly Cloudy
4:14 AM 75.2 °F - 71.6 °F 89% 30.01 in 10.0 mi NNE 15.0 mph - N/A   Overcast
4:45 AM 75.2 °F - 71.6 °F 89% 30.02 in 10.0 mi NNE 13.8 mph 21.9 mph N/A   Mostly Cloudy
4:53 AM 75.0 °F - 71.1 °F 87% 30.02 in 10.0 mi NE 16.1 mph - N/A   Mostly Cloudy
5:53 AM 73.9 °F - 71.1 °F 91% 30.02 in 10.0 mi NNE 17.3 mph 21.9 mph N/A   Mostly Cloudy
6:53 AM 73.9 °F - 71.1 °F 91% 30.04 in 10.0 mi NNE 11.5 mph - N/A   Scattered Clouds
7:53 AM 73.9 °F - 71.1 °F 91% 30.06 in 10.0 mi NNE 12.7 mph 20.7 mph N/A   Scattered Clouds
9:53 AM 75.9 °F - 71.1 °F 85% 30.09 in 10.0 mi NNE 12.7 mph 20.7 mph N/A   Partly Cloudy
10:53 AM 79.0 °F - 72.0 °F 79% 30.09 in 10.0 mi NE 15.0 mph 20.7 mph N/A   Mostly Cloudy
11:53 AM 81.0 °F 84.1 °F 69.1 °F 67% 30.09 in 10.0 mi ENE 17.3 mph 24.2 mph N/A   Partly Cloudy
12:53 PM 82.0 °F 85.9 °F 70.0 °F 67% 30.06 in 10.0 mi NE 18.4 mph - N/A   Clear
1:53 PM 81.0 °F 84.4 °F 70.0 °F 69% 30.05 in 10.0 mi NE 19.6 mph 25.3 mph N/A   Partly Cloudy
2:53 PM 82.0 °F 85.5 °F 69.1 °F 65% 30.03 in 10.0 mi NE 21.9 mph - N/A   Partly Cloudy
3:53 PM 81.0 °F 84.4 °F 70.0 °F 69% 30.03 in 10.0 mi NE 19.6 mph 26.5 mph N/A   Partly Cloudy
4:53 PM 81.0 °F 84.1 °F 69.1 °F 67% 30.02 in 10.0 mi NE 18.4 mph 25.3 mph N/A   Clear
6:53 PM 78.1 °F - 68.0 °F 71% 30.04 in 10.0 mi ENE 21.9 mph 27.6 mph N/A   Partly Cloudy
7:53 PM 78.1 °F - 66.9 °F 68% 30.05 in 10.0 mi NE 20.7 mph 27.6 mph N/A   Partly Cloudy
8:53 PM 77.0 °F - 66.0 °F 69% 30.07 in 10.0 mi NE 17.3 mph 26.5 mph N/A   Partly Cloudy
9:53 PM 77.0 °F - 66.0 °F 69% 30.08 in 10.0 mi NE 18.4 mph 27.6 mph N/A   Partly Cloudy
10:53 PM 75.9 °F - 64.0 °F 67% 30.08 in 10.0 mi NE 17.3 mph 26.5 mph N/A   Clear
11:53 PM 75.9 °F - 63.0 °F 64% 30.08 in 10.0 mi NE 13.8 mph 23.0 mph N/A   Clear